Location: Dana
(41.8364°N, 106.7042°W)
Time: 05:20:36
(UTC+00:00)

Vanguard 1 Rocket - Visible Passes

Search period start: 10 May 2026 00:00
Search period end: 20 May 2026 00:00
Orbit: 655 x 4212 km, 34.3° (Epoch: 9 May)

Date Brightness Start Highest point End Pass type
(mag) Time Alt. Az. Time Alt. Az. Time Alt. Az.
10 May 10.5 02:42:26 10° W 03:00:12 66° S 03:24:53 12° ESE visible
10 May 10.8 05:10:36 10° W 05:31:18 45° SSW 05:41:59 34° S visible
10 May 11.3 07:46:06 10° W 07:59:05 18° SW 07:59:05 18° SW visible
11 May 10.7 03:56:14 10° W 04:15:39 55° SSW 04:32:59 25° SE visible
11 May 11.0 06:27:03 10° W 06:45:30 29° SW 06:50:05 27° SSW visible
12 May 10.5 02:42:46 10° W 02:59:54 63° SSW 03:24:02 12° ESE visible
12 May 10.9 05:11:03 10° W 05:30:34 39° SW 05:41:08 30° S visible
12 May 11.5 07:50:05 10° WSW 07:58:14 13° SW 07:58:14 13° SW visible
13 May 10.7 03:56:36 10° W 04:15:09 50° SSW 04:32:13 23° SSE visible
13 May 11.2 06:28:20 10° W 06:44:37 23° SW 06:49:20 22° SSW visible
14 May 10.6 02:43:08 10° W 02:59:38 58° SSW 03:23:22 12° SE visible
14 May 11.0 05:11:44 10° W 05:29:50 34° SW 05:40:29 26° S visible
15 May 10.8 03:57:05 10° W 04:14:39 44° SSW 04:31:40 21° SSE visible
15 May 11.4 06:30:30 10° W 06:43:48 18° SW 06:48:47 17° SW visible
16 May 10.6 02:43:34 10° W 02:59:21 53° SSW 03:22:55 11° SE visible
16 May 11.2 05:12:44 10° W 05:29:10 28° SW 05:40:02 21° S visible
17 May 10.9 03:57:44 10° W 04:14:11 38° SSW 04:31:19 18° SSE visible
17 May 11.5 06:34:36 10° WSW 06:43:07 13° SW 06:48:27 12° SW visible
18 May 10.7 02:44:07 10° W 02:59:06 47° SSW 03:22:11 10° SE visible
18 May 11.3 05:14:16 10° W 05:28:35 22° SW 05:39:48 16° SSW visible
19 May 11.1 03:58:37 10° W 04:13:46 32° SW 04:31:11 14° SSE visible
